Location: Alafon
(8.4500°N, 4.2333°E)
Time: 01:52:56
(UTC+00:00)

Cosmos 2219 - Pass Details

Date: 05 July 2020
Orbit: 835 x 858 km, 71.1° (Epoch: 06 August)

Event Time Altitude Azimuth Distance (km) Brightness Sun altitude
Rises 18:50:01 0° 333° (NNW) 3,372 7.2 -10.8°
Reaches altitude 10° 18:52:32 10° 328° (NNW) 2,440 6.6 -11.4°
Maximum altitude 18:57:51 46° 256° (WSW) 1,106 4.2 -12.6°
Drops below altitude 10° 19:03:14 10° 183° (S) 2,454 5.4 -13.8°
Sets 19:05:46 0° 177° (S) 3,393 6.1 -14.3°
